{"data":{"norad_id":63897,"intl_designator":"2025-095H","name":"STARLINK-33957","alt_names":[],"object_type":"PAYLOAD","status":"ACTIVE","operator":null,"country":"US","launch_date":"2025-05-10","launch_site_code":"AFETR","launch_vehicle":null,"mission":null,"orbit_class":"UNKNOWN","rcs_meters":null,"size_class":null,"mass_kg":null,"dimensions":null,"purposes":["comms"],"wikipedia_slug":null,"has_3d_model":false,"image_url":null,"decayed_at":null,"tle_current":{"epoch":"2026-09-20T22:17:49.557984Z","epoch_age_seconds":109913,"freshness":"FRESH","line1":"1 63897U 25095H   26263.92904581  .00013811  00000+0  51029-3 0  9994","line2":"2 63897  43.0007 153.9110 0002156 304.5376  55.5272 15.27590931 77632","mean_motion":15.27590931,"eccentricity":0.0002156,"inclination_deg":43.0007,"raan_deg":153.911,"arg_perigee_deg":304.5376,"mean_anomaly_deg":55.5272,"bstar":0.00051029,"rev_number":7763,"period_min":94.266074167993,"perigee_km":481.53710022296,"apogee_km":484.4956295539,"semimajor_km":6861.1533648884,"source":"CELESTRAK","updated_at":"2026-09-21T09:00:35.144353Z"}}}